• In Romania
  • List of Countries
  • For 7 days
  • Water Temperature
  • Satellite Maps
  • Weather Map
  • Weather Widgets
  • user-avatar
    Login

    Hourly Weather Parakou

    Today, 21 June, Thursday

    Time Temperature Precipitation Wind Pressure Humidity
    00:00 +25°C° 0 mm 2 mps 729 mmHg 92%
    01:00 +24°C° 0.2 mm 2 mps 729 mmHg 94%
    02:00 +24°C° 0.2 mm 2 mps 728 mmHg 95%
    03:00 +24°C° 0.2 mm 2 mps 728 mmHg 96%
    04:00 +24°C° 0.4 mm 2 mps 728 mmHg 96%
    05:00 +24°C° 0.4 mm 2 mps 728 mmHg 96%
    06:00 +24°C° 0 mm 2 mps 729 mmHg 96%
    07:00 +24°C° 0.8 mm 3 mps 729 mmHg 94%
    08:00 +25°C° 0.8 mm 3 mps 729 mmHg 93%
    09:00 +25°C° 0.8 mm 3 mps 730 mmHg 91%
    10:00 +26°C° 1.2 mm 3 mps 730 mmHg 88%
    11:00 +27°C° 1.2 mm 3 mps 729 mmHg 85%
    12:00 +28°C° 0 mm 2 mps 729 mmHg 81%
    13:00 +28°C° 1.3 mm 2 mps 729 mmHg 79%
    14:00 +28°C° 1.3 mm 2 mps 729 mmHg 77%
    15:00 +29°C° 1.3 mm 1 mps 728 mmHg 75%
    16:00 +28°C° 1.4 mm 1 mps 729 mmHg 79%
    17:00 +27°C° 1.4 mm 1 mps 729 mmHg 83%
    18:00 +26°C° 1.4 mm 1 mps 729 mmHg 87%
    19:00 +25°C° 0.6 mm 1 mps 729 mmHg 89%
    20:00 +25°C° 0.6 mm 2 mps 729 mmHg 91%
    21:00 +24°C° 0.6 mm 2 mps 729 mmHg 94%
    22:00 +24°C° 0 mm 2 mps 729 mmHg 94%
    23:00 +24°C° 0 mm 2 mps 729 mmHg 95%

    Tomorrow, 22 June, Friday

    Time Temperature Precipitation Wind Pressure Humidity
    00:00 +23°C° 0 mm 2 mps 729 mmHg 96%
    01:00 +23°C° 0 mm 2 mps 729 mmHg 96%
    02:00 +23°C° 0 mm 2 mps 729 mmHg 96%
    03:00 +23°C° 0 mm 2 mps 729 mmHg 95%
    04:00 +23°C° 0 mm 2 mps 729 mmHg 96%
    05:00 +23°C° 0 mm 2 mps 730 mmHg 96%
    06:00 +23°C° 0 mm 2 mps 730 mmHg 96%
    07:00 +24°C° 0.1 mm 2 mps 730 mmHg 92%
    08:00 +25°C° 0.1 mm 3 mps 730 mmHg 87%
    09:00 +26°C° 0.1 mm 3 mps 730 mmHg 83%
    10:00 +28°C° 0 mm 3 mps 730 mmHg 75%
    11:00 +29°C° 0 mm 3 mps 730 mmHg 67%
    12:00 +31°C° 0 mm 3 mps 730 mmHg 59%
    13:00 +31°C° 0 mm 3 mps 729 mmHg 58%
    14:00 +31°C° 0 mm 3 mps 728 mmHg 57%
    15:00 +33°C° 0 mm 3 mps 728 mmHg 56%
    16:00 +31°C° 0 mm 3 mps 728 mmHg 59%
    17:00 +30°C° 0 mm 2 mps 728 mmHg 63%
    18:00 +29°C° 0 mm 2 mps 728 mmHg 67%
    19:00 +28°C° 0 mm 2 mps 728 mmHg 70%
    20:00 +27°C° 0 mm 2 mps 729 mmHg 74%
    21:00 +26°C° 0 mm 2 mps 730 mmHg 77%
    22:00 +26°C° 0 mm 3 mps 730 mmHg 80%
    23:00 +25°C° 0 mm 3 mps 730 mmHg 83%

    Day after tomorrow, 23 June, Saturday

    Time Temperature Precipitation Wind Pressure Humidity
    00:00 +25°C° 0 mm 3 mps 730 mmHg 87%
    01:00 +25°C° 0 mm 3 mps 730 mmHg 87%
    02:00 +24°C° 0 mm 3 mps 729 mmHg 87%
    03:00 +24°C° 0 mm 3 mps 729 mmHg 87%
    04:00 +24°C° 0 mm 3 mps 729 mmHg 87%
    05:00 +24°C° 0 mm 3 mps 730 mmHg 86%
    06:00 +24°C° 0 mm 3 mps 730 mmHg 86%
    07:00 +25°C° 0 mm 3 mps 730 mmHg 81%
    08:00 +26°C° 0 mm 3 mps 731 mmHg 77%
    09:00 +27°C° 0 mm 3 mps 731 mmHg 72%
    10:00 +28°C° 0 mm 3 mps 731 mmHg 67%
    11:00 +30°C° 0 mm 3 mps 730 mmHg 62%
    12:00 +31°C° 0 mm 3 mps 730 mmHg 58%
    13:00 +31°C° 0.2 mm 3 mps 729 mmHg 57%
    14:00 +32°C° 0.2 mm 2 mps 728 mmHg 56%
    15:00 +32°C° 0.2 mm 2 mps 728 mmHg 55%
    16:00 +30°C° 1.4 mm 2 mps 728 mmHg 64%
    17:00 +28°C° 1.4 mm 2 mps 728 mmHg 74%
    18:00 +26°C° 1.4 mm 2 mps 728 mmHg 83%
    19:00 +26°C° 0.2 mm 2 mps 728 mmHg 86%
    20:00 +25°C° 0.2 mm 2 mps 729 mmHg 89%
    21:00 +25°C° 0.2 mm 2 mps 730 mmHg 91%
    22:00 +24°C° 0 mm 2 mps 729 mmHg 92%
    23:00 +24°C° 0 mm 2 mps 729 mmHg 93%

    24 June, Sunday

    Time Temperature Precipitation Wind Pressure Humidity
    00:00 +24°C° 0 mm 2 mps 729 mmHg 94%
    01:00 +24°C° 0.1 mm 2 mps 729 mmHg 94%
    02:00 +24°C° 0.1 mm 2 mps 729 mmHg 95%
    03:00 +24°C° 0.1 mm 2 mps 728 mmHg 95%
    04:00 +24°C° 0 mm 2 mps 729 mmHg 94%
    05:00 +24°C° 0 mm 2 mps 729 mmHg 94%
    06:00 +24°C° 0 mm 3 mps 729 mmHg 93%
    07:00 +25°C° 0 mm 3 mps 729 mmHg 89%
    08:00 +25°C° 0 mm 3 mps 730 mmHg 85%
    09:00 +26°C° 0 mm 3 mps 730 mmHg 81%
    10:00 +28°C° 0.1 mm 3 mps 730 mmHg 74%
    11:00 +30°C° 0.1 mm 3 mps 729 mmHg 66%
    12:00 +31°C° 0.1 mm 3 mps 729 mmHg 59%
    13:00 +31°C° 0.8 mm 3 mps 728 mmHg 62%
    14:00 +30°C° 0.8 mm 2 mps 728 mmHg 65%
    15:00 +30°C° 0.8 mm 2 mps 727 mmHg 68%
    16:00 +29°C° 2.1 mm 2 mps 727 mmHg 74%
    17:00 +27°C° 2.1 mm 1 mps 727 mmHg 81%
    18:00 +26°C° 2.1 mm 1 mps 728 mmHg 87%
    19:00 +26°C° 0.7 mm 1 mps 728 mmHg 88%
    20:00 +25°C° 0.7 mm 1 mps 728 mmHg 90%
    21:00 +25°C° 0.7 mm 1 mps 729 mmHg 91%
    22:00 +24°C° 0 mm 1 mps 729 mmHg 92%
    23:00 +24°C° 0 mm 1 mps 729 mmHg 93%

    25 June, Monday

    Time Temperature Precipitation Wind Pressure Humidity
    00:00 +24°C° 0 mm 1 mps 728 mmHg 94%
    01:00 +24°C° 0 mm 1 mps 728 mmHg 95%
    02:00 +23°C° 0 mm 1 mps 728 mmHg 96%
    03:00 +23°C° 0 mm 1 mps 727 mmHg 97%
    04:00 +23°C° 0 mm 1 mps 728 mmHg 97%
    05:00 +23°C° 0 mm 2 mps 728 mmHg 97%
    06:00 +23°C° 0 mm 2 mps 729 mmHg 97%
    07:00 +24°C° 0 mm 2 mps 729 mmHg 91%
    08:00 +25°C° 0 mm 2 mps 730 mmHg 85%
    09:00 +27°C° 0 mm 3 mps 730 mmHg 79%
    10:00 +28°C° 0 mm 2 mps 730 mmHg 71%
    11:00 +30°C° 0 mm 2 mps 729 mmHg 63%
    12:00 +32°C° 0 mm 2 mps 729 mmHg 55%
    13:00 +32°C° 0.2 mm 2 mps 728 mmHg 54%
    14:00 +32°C° 0.2 mm 1 mps 728 mmHg 54%
    15:00 +32°C° 0.2 mm 1 mps 727 mmHg 54%
    16:00 +31°C° 0 mm 1 mps 727 mmHg 58%
    17:00 +30°C° 0 mm 1 mps 727 mmHg 61%
    18:00 +29°C° 0 mm 1 mps 728 mmHg 64%
    19:00 +28°C° 0 mm 1 mps 728 mmHg 68%
    20:00 +27°C° 0 mm 2 mps 729 mmHg 72%
    21:00 +26°C° 0 mm 2 mps 729 mmHg 76%
    22:00 +26°C° 0 mm 2 mps 729 mmHg 80%
    23:00 +25°C° 0 mm 2 mps 729 mmHg 84%

    26 June, Tuesday

    Time Temperature Precipitation Wind Pressure Humidity
    00:00 +24°C° 0 mm 2 mps 729 mmHg 87%
    01:00 +24°C° 0.1 mm 2 mps 728 mmHg 89%
    02:00 +24°C° 0.1 mm 2 mps 728 mmHg 91%
    03:00 +24°C° 0.1 mm 1 mps 728 mmHg 92%
    04:00 +23°C° 0.3 mm 1 mps 728 mmHg 93%
    05:00 +23°C° 0.3 mm 1 mps 728 mmHg 94%
    06:00 +23°C° 0.3 mm 1 mps 728 mmHg 94%
    07:00 +24°C° 0 mm 1 mps 729 mmHg 89%
    08:00 +26°C° 0 mm 1 mps 729 mmHg 84%
    09:00 +27°C° 0 mm 1 mps 730 mmHg 79%
    10:00 +28°C° 0 mm 1 mps 729 mmHg 72%
    11:00 +30°C° 0 mm 1 mps 729 mmHg 65%
    12:00 +32°C° 0 mm 1 mps 728 mmHg 57%
    13:00 +32°C° 0.2 mm 1 mps 728 mmHg 54%
    14:00 +33°C° 0.2 mm 1 mps 727 mmHg 51%
    15:00 +34°C° 0.2 mm 1 mps 727 mmHg 49%
    16:00 +31°C° 2.2 mm 1 mps 727 mmHg 60%
    17:00 +29°C° 2.2 mm 1 mps 727 mmHg 71%
    18:00 +27°C° 2.2 mm 2 mps 727 mmHg 83%
    19:00 +26°C° 2.1 mm 2 mps 727 mmHg 85%
    20:00 +26°C° 2.1 mm 2 mps 728 mmHg 88%
    21:00 +25°C° 2.1 mm 2 mps 728 mmHg 91%
    22:00 +25°C° 0 mm 2 mps 728 mmHg 91%
    23:00 +25°C° 0 mm 1 mps 728 mmHg 92%
    Show more